Regional Weather Roundup
Issued by NWS Sterling, VA

Home | Current Version | Previous Version | Graphics & Text | Print | Product List | Glossary On
Versions: 1 2 3 4 5 6 7 8 9 10 11 12 13 14 15 16 17 18 19 20 21 22 23 24 25 26 27 28 29 30 31 32 33 34 35 36 37 38 39 40 41 42 43 44 45 46 47 48 49 50
000
ASUS41 KLWX 241710
RWRLWX

REGIONAL WEATHER ROUNDUP
NATIONAL WEATHER SERVICE BALTIMORE MD/WASHINGTON DC
100 PM EDT FRI APR 24 2015

Note: "FAIR" indicates few or no clouds below 12,000 feet
with no significant weather and/or obstructions to visibility.
 TC=TEMPERATURE CELSIUS

 * =Non NWS site. Station does not report precipitation (e.g. rain,
    snow, etc.), thunder, or fog.

DCZ001-MDZ009-015-VAZ040>042-051-053>054-241800-
WASHINGTON METRO

CITY           SKY/WX    TMP DP  RH WIND       PRES   REMARKS
WASHINGTON NAT MOSUNNY   56  22  26 NW16G26   29.99F
DULLES         SUNNY     52  20  28 NW17G26   29.99F
ANDREWS AFB    SUNNY     52  18  26 NW14G29   29.97F
FT BELVOIR     SUNNY     54  18  24 NW16G28   29.99F
QUANTICO       SUNNY     55  18  23 W17G24    30.01F
COLLEGE PARK*  SUNNY     52  18  25 NW13G24   29.98F
LEESBURG*      SUNNY     54  27  35 NW20G28   29.99F
MANASSAS*      SUNNY     54  18  24 N20       30.00F
GAITHERSBURG*  SUNNY     50  19  29 NW15G31   30.01F

$$

MDZ006>007-011-014-241800-
BALTIMORE METRO

CITY           SKY/WX    TMP DP  RH WIND       PRES   REMARKS
BWI AIRPORT    MOSUNNY   51  20  29 W16G26    29.96F
MD SCIENCE CTR   N/A     51  15  23 MISG      29.97F
MARTIN STATE   SUNNY     54  21  28 W13G24    29.97F
ANNAPOLIS      SUNNY     51  18  27 W10G21    29.97F
FORT MEADE*    SUNNY     54  21  28 W15G24    29.99F

$$

MDZ012-015-019>023-241800-
MARYLAND EASTERN SHORE

CITY           SKY/WX    TMP DP  RH WIND       PRES   REMARKS
OCEAN CITY     SUNNY     51  23  33 NW15G26   29.94F
SALISBURY      SUNNY     50  23  34 NW14G23   29.95F
BAY BRIDGE AP*   N/A    N/A N/A N/A NW17G26   29.97F
CAMBRIDGE*     SUNNY     52  21  30 NW13G23   29.97F
EASTON*        MOSUNNY   52  25  35 NW13G24   30.00F

$$

MDZ017>025-241800-
SOUTHERN MARYLAND

CITY           SKY/WX    TMP DP  RH WIND       PRES   REMARKS
PATUXENT RIVER MOSUNNY   54  22  28 NW21G26   29.98F
ST INIGOES     SUNNY     52  23  32 W17G26    29.98F
LEONARDTOWN*   SUNNY     52  18  25 W16G23    29.99F

$$

MDZ003>005-241800-
NORTH CENTRAL MARYLAND

CITY           SKY/WX    TMP DP  RH WIND       PRES   REMARKS
FREDERICK*     SUNNY     54  12  19 W12G22    30.00F
HAGERSTOWN APT SUNNY     52  20  28 W21G26    29.96F
WESTMINSTER*   SUNNY     50   9  18 W20G30    29.93F

$$

MDZ501>502-241800-
WESTERN MARYLAND

CITY           SKY/WX    TMP DP  RH WIND       PRES   REMARKS
OAKLAND*       SUNNY     41  19  42 NW13G25   29.97S
CUMBERLAND*    SUNNY     52  19  28 N13G20    30.04F

$$

VAZ025>031-241800-
SHENANDOAH VALLEY

CITY           SKY/WX    TMP DP  RH WIND       PRES   REMARKS
WINCHESTER*    SUNNY     54   9  16 W20G29    29.98F
FRONT ROYAL*   FAIR      54  18  24 W13G23    29.98F
LURAY*         FAIR      55  21  26 W8G18     30.00F
NEW MARKET*    FAIR      53  13  20 CALM      29.99F
STAUNTON*      SUNNY     56  18  22 NW12      30.01F
WAYNESBORO*    FAIR      53  16  22 NW8       29.99F

$$

WVZ021-048>050-054>055-241800-
EASTERN WEST VIRGINIA PANHANDLE

CITY           SKY/WX    TMP DP  RH WIND       PRES   REMARKS
MARTINSBURG    SUNNY     53  17  24 W15G23    29.98F
PETERSBURG*    SUNNY     53  15  21 NW14G23   30.02F

$$

VAZ036>039-050-241800-
CENTRAL FOOTHILLS

CITY           SKY/WX    TMP DP  RH WIND       PRES   REMARKS
CHARLOTTESVILL SUNNY     55  19  24 NW9       30.00F
CULPEPER*      SUNNY     55  18  22 W6        30.00F
ORANGE*        SUNNY     55  23  28 SW12G18   30.02F
GORDONSVILLE*  FAIR      54  19  25 SW13      30.00F
WARRENTON*     FAIR      56  24  29 W7G16     30.00F

$$

VAZ055>057-241800-
NORTH AND CENTRAL PIEDMONT

CITY           SKY/WX    TMP DP  RH WIND       PRES   REMARKS
FREDERICKSBRG* SUNNY     55  21  26 W10G20    30.00F
STAFFORD*      SUNNY     53  18  24 W16G22    30.05F

$$

NCZ024-NYZ072-PAZ021-071-VAZ022-071-241800-
OTHER REGIONAL OBSERVATIONS

CITY           SKY/WX    TMP DP  RH WIND       PRES   REMARKS
NEW YORK CITY  PTSUNNY   48  18  30 VRB7G24   29.87F
PHILADELPHIA   MOSUNNY   50  16  25 NW16G25   29.91F
PITTSBURGH     MOSUNNY   49  22  34 NW22G29   30.04F
ROANOKE        MOSUNNY   59  17  19 W16G23    30.04F
RICHMOND       MOSUNNY   58  25  28 W9G18     30.01F
RALEIGH        MOSUNNY   59  25  27 CALM      30.05F

$$

ANZ530>537-241800-
MARINE OBSERVATIONS

STATION/POSITION TIME  TEMP    WIND        PRES
                       AIR SEA DIR/SP/G
                 (UTC) (F)     (DEG/KT/KT) (MB)
THOMAS PT LIGHT  1700   48 53  300/ 14/ 16 1015.3F
BALT KEY BRIDGE  1600   46     310/ 16/ 19 1015.0F
COVE POINT       1600   46     340/ 16/ 20 1016.4F
LEWISETTA        1600   49 58              1016.3F
SOLOMONS ISLAND  1600      57                N/A
PINEY POINT      1600          310/ 21/ 25   N/A

$$



USA.gov is the U.S. government's official web portal to all federal, state and local government web resources and services.